Paynesville, MN

12:29 PM CST on November 20, 2017 (GMT -0600)
Paynesville

Weather History for KPEX - October, 2013

Change the Weather History Date:

Wednesday, October 30, 2013

  Actual Average (KLJF) Record (KLJF)
Temperature  
Mean Temperature 38 °F -  
Max Temperature 42 °F 51 °F 78 °F (1950)
Min Temperature 34 °F 33 °F 13 °F (1988)
Degree Days  
Heating Degree Days 27    
Moisture  
Dew Point 38 °F    
Average Humidity 98    
Maximum Humidity 100    
Minimum Humidity 94    
Precipitation  
Precipitation 0.00 in - - ()
Sea Level Pressure  
Sea Level Pressure 29.89 in    
Wind  
Wind Speed 3 mph (NE)    
Max Wind Speed 8 mph    
Max Gust Speed -    
Visibility 2 miles    
Events Fog , Rain    
Averages and records for this station are not official NWS values.
T = Trace of Precipitation, MM = Missing Value Source: NWS Daily Summary

Daily Weather History Graph

Daily Weather History Graph

Search for Another Location

Airport or City:

Trip Planner

Search our weather history database for the weather conditions in past years. The results will help you decide how hot, cold, wet, or windy it might be!

Date:

Astronomy

Oct. 30, 2013 Rise Set
Actual Time 7:55 AM CDT 6:08 PM CDT
Civil Twilight 7:25 AM CDT 6:39 PM CDT
Nautical Twilight 6:50 AM CDT 7:14 PM CDT
Astronomical Twilight 6:15 AM CDT 7:48 PM CDT
Moon 3:34 AM CDT (10/30) 4:04 PM CDT (10/30)
Length of Visible Light 11h 14m
Length of Day
10h 12m
Waning Crescent, 17% of the Moon is Illuminated
Oct 30
Waning Crescent
Nov 3
New
Nov 9
First Quarter
Nov 17
Full
Nov 25
Last Quarter

Hourly Weather History & Observations

Time (CDT) Temp. Windchill Dew Point Humidity Pressure Visibility Wind Dir Wind Speed Gust Speed Precip Events Conditions
12:13 AM 34.7 °F 30.6 °F 33.1 °F 94% 30.08 in 10.0 mi NE 4.6 mph - N/A   Overcast
12:32 AM 34.7 °F 30.6 °F 33.3 °F 94% 30.08 in 7.0 mi NNE 4.6 mph - N/A   Overcast
12:52 AM 34.3 °F 29.2 °F 32.9 °F 94% 30.08 in 5.0 mi NNE 5.8 mph - N/A   Overcast
1:13 AM 34.3 °F 30.2 °F 33.1 °F 95% 30.07 in 5.0 mi NE 4.6 mph - N/A   Overcast
1:33 AM 34.5 °F 29.4 °F 33.3 °F 95% 30.07 in 4.0 mi NNE 5.8 mph - N/A   Overcast
1:52 AM 34.3 °F 29.2 °F 33.3 °F 96% 30.07 in 2.5 mi NE 5.8 mph - N/A   Overcast
2:12 AM 34.3 °F 31.4 °F 33.4 °F 97% 30.06 in 2.5 mi NE 3.5 mph - N/A   Overcast
2:33 AM 34.7 °F - 33.8 °F 97% 30.06 in 2.5 mi Calm Calm - N/A   Overcast
2:52 AM 34.9 °F 32.0 °F 34.0 °F 97% 30.05 in 3.0 mi ENE 3.5 mph - N/A   Overcast
3:13 AM 34.9 °F 32.0 °F 34.2 °F 97% 30.04 in 2.0 mi East 3.5 mph - N/A   Overcast
3:32 AM 35.1 °F - 34.3 °F 97% 30.04 in 2.5 mi Calm Calm - N/A   Overcast
3:52 AM 35.2 °F - 34.5 °F 97% 30.03 in 3.0 mi Calm Calm - N/A   Overcast
4:13 AM 35.2 °F 32.4 °F 34.7 °F 98% 30.03 in 4.0 mi NNE 3.5 mph - N/A   Overcast
4:32 AM 35.2 °F - 34.7 °F 98% 30.02 in 2.5 mi Calm Calm - N/A   Overcast
4:53 AM 35.2 °F 32.4 °F 34.7 °F 98% 30.01 in 2.5 mi NE 3.5 mph - N/A   Overcast
5:12 AM 35.2 °F - 34.7 °F 98% 30.01 in 1.8 mi Calm Calm - N/A   Overcast
5:33 AM 35.1 °F 32.2 °F 34.3 °F 97% 30.01 in 1.8 mi NE 3.5 mph - N/A Rain Light Rain
5:53 AM 35.1 °F 32.2 °F 34.7 °F 99% 30.01 in 1.5 mi NNE 3.5 mph - N/A   Overcast
6:13 AM 35.1 °F 31.0 °F 34.7 °F 99% 30.01 in 1.5 mi NNE 4.6 mph - N/A Rain Light Rain
6:32 AM 35.1 °F 31.0 °F 34.7 °F 99% 30.00 in 1.8 mi NE 4.6 mph - N/A Rain Light Rain
6:52 AM 35.1 °F - 34.7 °F 99% 30.00 in 2.5 mi Calm Calm - N/A   Overcast
7:13 AM 35.2 °F - 34.7 °F 98% 29.99 in 2.5 mi Calm Calm - N/A   Overcast
7:33 AM 35.2 °F - 34.7 °F 98% 29.98 in 2.5 mi Calm Calm - N/A   Overcast
7:53 AM 35.2 °F 29.5 °F 34.7 °F 98% 29.96 in 3.0 mi NE 6.9 mph - N/A   Overcast
8:12 AM 35.4 °F 30.5 °F 34.7 °F 97% 29.95 in 2.5 mi ENE 5.8 mph - N/A   Overcast
8:33 AM 35.6 °F 30.7 °F 34.9 °F 97% 29.96 in 1.8 mi ENE 5.8 mph - N/A   Overcast
8:53 AM 36.0 °F 32.1 °F 35.6 °F 99% 29.97 in 2.0 mi East 4.6 mph - N/A   Overcast
9:13 AM 36.5 °F 32.7 °F 36.0 °F 98% 29.97 in 1.2 mi ENE 4.6 mph - N/A   Overcast
9:33 AM 36.9 °F 33.1 °F 36.5 °F 99% 29.98 in 1.0 mi East 4.6 mph - N/A   Overcast
9:52 AM 37.2 °F 33.6 °F 36.9 °F 99% 29.97 in 0.5 mi East 4.6 mph - N/A Fog Fog
10:12 AM 37.4 °F 34.9 °F 37.0 °F 99% 29.98 in 0.5 mi ESE 3.5 mph - N/A Fog Fog
10:33 AM 37.6 °F 35.1 °F 37.4 °F 99% 29.96 in 0.5 mi ENE 3.5 mph - N/A Fog Fog
10:53 AM 37.8 °F 35.3 °F 37.4 °F 99% 29.94 in 0.5 mi East 3.5 mph - N/A Fog Fog
11:12 AM 38.5 °F 34.1 °F 38.1 °F 99% 29.90 in 0.5 mi NE 5.8 mph - N/A Fog Fog
11:32 AM 38.5 °F 32.7 °F 38.3 °F 99% 29.88 in 0.5 mi NNE 8.1 mph - N/A Fog Fog
11:53 AM 39.2 °F 33.6 °F 38.7 °F 98% 29.87 in 0.8 mi NE 8.1 mph - N/A   Overcast
12:13 PM 39.2 °F 35.9 °F 38.8 °F 99% 29.88 in 0.8 mi NE 4.6 mph - N/A   Overcast
12:33 PM 39.6 °F - 39.2 °F 99% 29.89 in 0.8 mi Calm Calm - N/A   Overcast
12:52 PM 40.1 °F - 39.7 °F 99% 29.89 in 1.0 mi Calm Calm - N/A   Overcast
1:12 PM 40.1 °F 38.0 °F 39.7 °F 99% 29.89 in 0.8 mi East 3.5 mph - N/A   Overcast
1:32 PM 40.5 °F - 40.1 °F 99% 29.89 in 0.5 mi Calm Calm - N/A Fog Fog
1:52 PM 41.0 °F - 40.6 °F 99% 29.88 in 0.5 mi Calm Calm - N/A Fog Fog
2:13 PM 41.0 °F - 40.6 °F 99% 29.85 in 0.5 mi Calm Calm - N/A Fog Fog
2:33 PM 41.2 °F 38.2 °F 40.8 °F 99% 29.84 in 0.5 mi ENE 4.6 mph - N/A Fog Fog
2:53 PM 41.0 °F 38.0 °F 40.8 °F 99% 29.82 in 0.2 mi ENE 4.6 mph - N/A Fog Fog
3:13 PM 41.4 °F 38.4 °F 41.0 °F 99% 29.80 in 0.2 mi ENE 4.6 mph - N/A Fog Fog
3:32 PM 41.2 °F - 41.0 °F 99% 29.80 in 0.5 mi Calm Calm - N/A Fog Fog
3:52 PM 41.4 °F - 41.0 °F 99% 29.80 in 0.5 mi Calm Calm - N/A Fog Fog
4:13 PM 41.5 °F - 41.4 °F 99% 29.79 in 0.5 mi Calm Calm - N/A Fog Fog
4:32 PM 41.7 °F 39.8 °F 41.4 °F 99% 29.78 in 0.5 mi East 3.5 mph - N/A Fog Fog
4:53 PM 41.9 °F - 41.9 °F 100% 29.77 in 0.5 mi Calm Calm - N/A Fog Fog
5:13 PM 42.1 °F 40.2 °F 41.9 °F 99% 29.76 in 0.2 mi East 3.5 mph - N/A Fog Fog
5:32 PM 42.1 °F 40.2 °F 41.9 °F 99% 29.77 in 0.2 mi East 3.5 mph - N/A Fog Fog
5:53 PM 42.1 °F - 41.9 °F 99% 29.77 in 0.5 mi Calm Calm - N/A Fog Fog
6:12 PM 42.1 °F - 41.9 °F 99% 29.77 in 0.2 mi Calm Calm - N/A Fog Fog
6:32 PM 42.1 °F - 41.9 °F 99% 29.77 in 0.2 mi Calm Calm - N/A Fog Fog
6:53 PM 42.3 °F - 42.1 °F 99% 29.77 in 0.2 mi Calm Calm - N/A Fog Fog
7:12 PM 42.3 °F - 42.1 °F 99% 29.76 in 0.2 mi Calm Calm - N/A Fog Fog
7:33 PM 42.3 °F - 42.1 °F 99% 29.76 in 0.5 mi Calm Calm - N/A Rain Light Rain
7:53 PM 42.4 °F - 42.3 °F 99% 29.75 in 0.5 mi Calm Calm - N/A   Unknown
8:12 PM 42.4 °F - 42.3 °F 99% 29.74 in 1.8 mi Calm Calm - N/A   Overcast
8:33 PM 42.4 °F - 42.3 °F 99% 29.73 in 1.0 mi Calm Calm - N/A   Overcast
8:53 PM 42.4 °F - 42.3 °F 99% 29.74 in 0.8 mi Calm Calm - N/A   Overcast
9:13 PM 42.3 °F - 42.1 °F 99% 29.74 in 0.5 mi Calm Calm - N/A   Unknown
9:32 PM 42.1 °F - 41.9 °F 99% 29.72 in 0.2 mi Calm Calm - N/A Fog Fog
9:52 PM 42.3 °F - 42.1 °F 99% 29.72 in 0.2 mi Calm Calm - N/A Fog Fog
10:13 PM 42.1 °F - 41.9 °F 99% 29.72 in 0.2 mi Calm Calm - N/A   Overcast
10:33 PM 42.1 °F - 41.9 °F 99% 29.71 in 0.2 mi Calm Calm - N/A   Unknown
10:52 PM 41.9 °F - 41.9 °F 100% 29.70 in 0.2 mi Calm Calm - N/A Rain Light Rain
11:13 PM 41.9 °F 40.0 °F 41.7 °F 99% 29.69 in 0.2 mi WNW 3.5 mph - N/A Fog Fog
11:33 PM 41.9 °F 40.0 °F 41.5 °F 99% 29.69 in 0.2 mi West 3.5 mph - N/A Fog Fog
11:52 PM 41.9 °F 39.0 °F 41.5 °F 99% 29.69 in 0.5 mi West 4.6 mph - N/A Fog Fog